Find Starlink 34299

NORAD ID: 64383 Int'l Des: 2025-127 Owner: SPXS Country: US Constellation: starlink operational
LEOCIRCULAR

Live Position

Loading 3D Globe...

About Starlink 34299

Description loading...

Upcoming Passes

Passes for default location (London). Set your location on the main map for personalized predictions.

Altitude History

Loading altitude history...

Two-Line Element Set

1 64383U 25127P 26106.88190177 .00010569 00000-0 39300-3 0 9996
2 64383 43.0045 324.4823 0003344 276.2199 83.8272 15.27583137 48259
Epoch: Apr 16, 2026 • Age: 10 hours

Current Status

Altitude 488.3 km
Velocity 7.63 km/s
Sub-Earth Point 42.74°N, 92.85°E
Launch Date Jun 13, 2025
Age 0.8 years
Type internet

Technical Details

Classification Payload
Mass 575.00 kg
Dry Mass 530.00 kg
Total Mass 575.00 kg
Length 0.30 m
Diameter 4.10 m
Span 29.00 m
Shape Box + pan
Manufacturer SPXS
Bus Type Starlink V2MO
Phase Status In Orbit
Owner/State SPXS/US

Most Searched